Regional Weather Roundup
Issued by NWS

Home | Current Version | Previous Version | Graphics & Text | Print | Product List | Glossary On
Versions: 1 2 3 4 5 6 7 8 9 10 11 12 13 14 15 16 17 18 19 20 21 22 23 24 25 26 27 28 29 30 31 32 33 34 35 36 37 38 39 40 41 42 43 44 45 46 47 48 49 50
045
ASUS45 KPSR 250810
RWRAZ

ARIZONA HOURLY REGIONAL WEATHER ROUNDUP
NATIONAL WEATHER SERVICE PHOENIX AZ
100 AM MST WED MAY 25 2016

NOTE: FAIR INDICATES FEW OR NO CLOUDS BELOW 12,000 FEET WITH NO
SIGNIFICANT WEATHER AND/OR OBSTRUCTIONS TO VISIBILITY.

AZZ001>003-036-250900-
NORTHWEST ARIZONA

CITY           SKY/WX    TMP DP  RH WIND       PRES   REMARKS
BULLHEAD CITY  CLEAR     75  28  17 S9        29.88R HAZE
KINGMAN        PTCLDY    55  23  28 SE6       29.97S
$$

AZZ004>008-015-016-018-250900-
NORTH CENTRAL ARIZONA

CITY           SKY/WX    TMP DP  RH WIND       PRES   REMARKS
GRAND CANYON   PTCLDY    40  16  37 CALM      30.11R
WILLIAMS       PTCLDY    48  14  25 S9        30.19R
PRESCOTT       PTCLDY    46  23  40 S6        30.07S
FLAGSTAFF      PTCLDY    45  17  32 W8        30.13R
PAYSON         CLEAR     54  23  30 CALM      30.11S
PAGE           PTCLDY    61  25  25 CALM      29.99R
$$

AZZ009>014-017-250900-
NORTHEAST ARIZONA

CITY           SKY/WX    TMP DP  RH WIND       PRES   REMARKS
WINSLOW        CLEAR     50  22  33 CALM      30.06S
SAINT JOHNS    CLEAR     49  18  29 W6        30.09F
WINDOW ROCK    CLEAR     46  16  30 E6        30.13S
SHOW LOW       CLEAR     45  18  33 S9        30.14S
$$

AZZ023-250900-
GREATER PHOENIX AREA

CITY           SKY/WX    TMP DP  RH WIND       PRES   REMARKS
PHOENIX        CLEAR     72  25  17 W5        29.90S
BUCKEYE        CLEAR     64  25  22 SE5       29.92S
LUKE AFB       CLEAR     67  32  27 CALM      29.90R
DEER VALLEY    CLEAR     65  20  17 CALM      29.92R
SCOTTSDALE     CLEAR     70  22  16 CALM      29.94R
MESA-GATEWAY   CLEAR     66  28  24 CALM      29.93S
$$

AZZ027-028-250900-
SOUTHWEST MARICOPA COUNTY AND PINAL COUNTY

CITY           SKY/WX    TMP DP  RH WIND       PRES   REMARKS
CASA GRANDE    CLEAR     70  27  19 W3        29.94S
GILA BEND      FAIR      65  21  18 S7        29.91R
$$

AZZ503-504-507>509-250900-
SOUTHEAST ARIZONA

CITY           SKY/WX    TMP DP  RH WIND       PRES   REMARKS
TUCSON         CLEAR     71  37  28 SW3       30.02S
DAVIS-MONTHAN  CLEAR     65  34  31 S6        30.00S
NOGALES        CLEAR     56  32  40 CALM      30.07R
SIERRA VISTA   CLEAR     60  14  16 SW5       30.10F
DOUGLAS        CLEAR     59  19  21 VRB5      30.07F
SAFFORD        CLEAR     68  22  17 W9        29.98R
$$

AZZ020-021-025-026-031-250900-
SOUTHWEST ARIZONA

CITY           SKY/WX    TMP DP  RH WIND       PRES   REMARKS
YUMA           CLEAR     68  41  37 NW8       29.91R
$$

CAZ031-033-041-043-047-048-061-250900-
SOUTHERN CALIFORNIA

CITY           SKY/WX    TMP DP  RH WIND       PRES   REMARKS
DOWNTOWN L.A.  MOCLDY    60  53  77 CALM      30.05S
L.A. AIRPORT   MOCLDY    58  52  80 W8        30.05S
SAN DIEGO      PTCLDY    63  51  65 N3        30.08R
BURBANK        CLOUDY    57  50  77 SE3       30.04S
ONTARIO        MOCLDY    57  49  74 W9        30.05S
RIVERSIDE      PTCLDY    57  50  77 W6        30.05S
PALM SPRINGS     N/A    N/A N/A N/A MISG      29.91R
EL CENTRO NAS  CLEAR     65  39  38 W17       29.93R
IMPERIAL       CLEAR     64  40  41 W8        29.91R
BLYTHE         CLEAR     65  47  52 S9        29.88S
NEEDLES        CLEAR     73  33  23 N5        29.88R
$$

NVZ020-UTZ003-250900-
SOUTHERN NEVADA-UTAH

CITY           SKY/WX    TMP DP  RH WIND       PRES   REMARKS
LAS VEGAS      PTCLDY    67  32  27 SW7       29.87S
SALT LAKE CITY PTCLDY    52  39  61 E6        29.95R
$$

NMZ009-TXZ055-250900-
NEW MEXICO-WEST TEXAS

CITY           SKY/WX    TMP DP  RH WIND       PRES   REMARKS
ALBUQUERQUE    CLEAR     63  13  14 W6        30.07R
EL PASO        PTCLDY    76  19  11 SW24G31   30.01R
$$


........................KEY........................
SKY/WX - SKY CONDITION/WEATHER
TMP    - TEMPERATURE IN FAHRENHEIT
DP     - DEW POINT IN FAHRENHEIT
RH     - RELATIVE HUMIDITY IN PERCENT
WIND   - DIRECTION AND SPEED IN MILES PER HOUR (MPH)
VRB    - VARIABLE WIND DIRECTION
PRES   - MEAN SEA LEVEL PRESSURE IN INCHES OF MERCURY
         F - FALLING PRESSURE   R - RISING PRESSURE
         S - STEADY PRESSURE
VSB    - VISIBILITY IN MILES
HX     - HEAT INDEX IN FAHRENHEIT
WCI    - WIND CHILL INDEX IN FAHRENHEIT
TC     - TEMPERATURE IN CELSIUS WHICH IS ALSO KNOWN AS
         TEMPERATURE IN CENTIGRADE
AFB    - AIR FORCE BASE
         LUKE AFB IS LUKE AIR FORCE BASE
         DAVIS-MONTHAN IS DAVIS-MONTHAN AIR FORCE BASE
NAS    - NAVAL AIR STATION
         EL CENTRO NAS IS EL CENTRO NAVAL AIR STATION
N/A    - NOT AVAILABLE





USA.gov is the U.S. government's official web portal to all federal, state and local government web resources and services.